sat.trackr.live / text

‹ back to catalog

STARLINK-4031

NORAD 52679 · 2022-053Z

PAYLOAD ACTIVE UNKNOWN

§ Identity

Operator
Country
US
Launch date
2022-05-18
Launch site
AFETR
Launch vehicle
Mass (kg)
RCS (m²)

Purposes: comms

External: N2YO · Heavens-Above · Gunter

§ Orbital elements

Epoch: 2026-05-25T01:20:31.151040Z

Period
95.44 min
Inclination
53.2141°
Eccentricity
0.0001005
Mean motion
15.08840754 rev/d
Perigee alt
539.0 km
Apogee alt
540.4 km
Semi-major
6,917.9 km
B*
6.6089e-5
RAAN
161.2996°
Arg perigee
83.9351°
Mean anomaly
276.1756°
Rev number
22,266

§ Raw data

STARLINK-40311 52679U 22053Z   26145.05591610  .00000764  00000+0  66089-4 0  99952 52679  53.2141 161.2996 0001005  83.9351 276.1756 15.08840754222660

JSON: /api/v1/satellites/52679 · /tle

For live sub-satellite position, see the globe view (requires WebGL).

§ Visibility from observer

Set your observer location to see the next 7 days of passes ≥ 10°. The values pass through the URL so the page stays shareable.

No JS? Fill the form by hand. The geolocation button needs JavaScript.